Terug naar catalogus

GAOFEN 11

ActiefWetenschapSSO
NORAD 43585·PAYLOAD·🇨🇳 China

Gelanceerd Jul 31, 2018 vanaf Taiyuan Satellite Launch Center

Loading…

Volgende Passages (komende 24 uur)

TLE

VersSource: Space-Track

Epoch: Sep 14, 2026, 11:17 UTC

1 43585U 18063A   26257.47075793  .00015722  00000-0  21339-3 0  9995
2 43585  97.1192 324.2037 0003870  26.7070 333.4385 15.57709999454235

Volg GAOFEN 11 in realtime met AllMySat

Download on the App Store